Рапид-Сити

США     44°04′50″N   103°13′50″W
темп.,
°C
ветер,
м/с
пор.,
м/с
влажн.,
%
обл.,
%
осадки,
мм/ч
давл.,
гПа
погр.,
м
19 апреля, пн
пн1900:00−1св6999100 3.7 1023515
03:00−3с71097100 4.4 1026699
06:00−4с61095100 6.9 1028742
09:00−3с7977100 0.2 10281133
12:00−3с81069100 0.2 10271483
15:00−1ссз71064100 0.1 10261793
18:00−1ссз5867100 0.2 10251268
21:00−6з447547 0.0 102942
20 апреля, вт
вт2000:00−7з48797 0.0 1028109
03:00−6з51180100 0.0 1027162
06:00−5сз613774 0.0 1026356
09:00−2ссз9136978 0.1 10271786
12:00−1ссз91264100 0.2 10262075
15:000ссз81163100 0.3 10251632
18:000ссз797285 0.5 10251036
21:00−4зсз3379100 0.0 102839
21 апреля, ср
ср2100:00−5з3378100 0.0 102938
03:00−6з32783 0.0 103031
06:00−7з33740 0.0 102939
09:00+1сз23460 0.0 1027913
12:00+4св224117 0.0 10241545
15:00+6в223840 0.0 10211661
18:00+6ююв334137 0.0 10191542
21:000юз35705 0.0 102268
22 апреля, чт
чт2200:00−1юз32680 0.0 102120
03:00−1юз33660 0.0 101937
06:00−2юз33630 0.0 101727
09:00+6ю811540 0.0 1013982
12:00+10ю895217 0.0 10091543
15:00+10ю765077 0.0 10071648
18:00+10юз454740 0.0 10061157
21:00+4юз33730 0.0 100834
23 апреля, пт
пт2300:00+4зюз33615 0.0 100829
03:00+4з34585 0.0 100753
06:00+2ссз2272100 0.0 100820
09:00+5с677472 0.0 1009419
12:00+6с101065100 0.1 1011867
15:00+1с101386100 2.6 1015802
18:00+2с8117673 3.9 10161016
21:00−2ссз48825 0.0 1021288